Weather History for White Mountain, AK

Change the Weather History Date:

Monday, March 25, 2013

  Actual Average (PAKK) Record (PAKK)
Temperature  
Mean Temperature -6 °F -  
Max Temperature -2 °F 16 °F 39 °F (2014)
Min Temperature -11 °F 4 °F -22 °F (2013)
Degree Days  
Heating Degree Days 72    
Moisture  
Dew Point -15 °F    
Average Humidity 72    
Maximum Humidity 83    
Minimum Humidity 59    
Precipitation  
Precipitation 0.00 in - - ()
Sea Level Pressure  
Sea Level Pressure 30.04 in    
Wind  
Wind Speed 13 mph (NNW)    
Max Wind Speed 23 mph    
Max Gust Speed 28 mph    
Visibility 7 miles    
Events      
Averages and records for this station are not official NWS values.
T = Trace of Precipitation, MM = Missing Value Source: NWS Daily Summary

Daily Weather History Graph

Daily Weather History Graph

Search for Another Location

Airport:

Trip Planner

Search our weather history database for the weather conditions in past years. The results will help you decide how hot, cold, wet, or windy it might be!

Date:

Astronomy

Mar. 25, 2013 Rise Set
Actual Time 8:34 AM AKDT 9:26 PM AKDT
Civil Twilight 7:44 AM AKDT 10:16 PM AKDT
Nautical Twilight 6:42 AM AKDT 11:18 PM AKDT
Astronomical Twilight 5:27 AM AKDT 12:35 AM AKDT
Moon 7:57 PM AKDT (3/25) 7:49 AM AKDT (3/25)
Length of Visible Light 14h 31m
Length of Day
12h 52m
Waxing Gibbous, 97% of the Moon is Illuminated
Mar 25
Waxing Gibbous
Mar 27
Full
Apr 2
Last Quarter
Apr 10
New
Apr 18
First Quarter

Hourly Weather History & Observations

Time (AKDT) Temp. Windchill Dew Point Humidity Pressure Visibility Wind Dir Wind Speed Gust Speed Precip Events Conditions
12:06 AM -11.2 °F -29.0 °F -16.6 °F 77% 30.05 in 7.0 mi NNW 9.2 mph - N/A   Mostly Cloudy
12:13 AM -11.2 °F -31.1 °F -16.6 °F 77% 30.05 in 6.0 mi NNW 11.5 mph - N/A   Haze
12:29 AM -11.2 °F -29.0 °F -16.6 °F 77% 30.05 in 6.0 mi North 9.2 mph - N/A   Haze
12:58 AM -11.0 °F -30.9 °F -16.1 °F 78% 30.09 in 5.0 mi North 11.5 mph - N/A   Haze
1:05 AM -11.2 °F -30.1 °F -16.6 °F 77% 30.05 in 5.0 mi North 10.4 mph - N/A   Haze
1:19 AM -11.2 °F -31.1 °F -16.6 °F 77% 30.05 in 5.0 mi North 11.5 mph - N/A   Haze
1:58 AM -11.0 °F -30.9 °F -15.0 °F 83% 30.09 in 5.0 mi NNW 11.5 mph - N/A   Overcast
2:58 AM -11.0 °F -28.8 °F -15.0 °F 83% 30.08 in 4.0 mi NNW 9.2 mph - N/A   Overcast
3:58 AM -11.0 °F -28.8 °F -16.1 °F 78% 30.08 in 9.0 mi North 9.2 mph - N/A   Overcast
4:58 AM -11.0 °F -28.8 °F -16.1 °F 78% 30.06 in 7.0 mi North 9.2 mph - N/A   Mostly Cloudy
5:58 AM -9.9 °F -27.5 °F -15.0 °F 78% 30.05 in 7.0 mi NNW 9.2 mph - 0.00 in   Overcast
6:58 AM -11.0 °F -27.6 °F -16.1 °F 78% 30.05 in 7.0 mi NNW 8.1 mph - N/A   Overcast
7:58 AM -11.0 °F -26.2 °F -16.1 °F 78% 30.06 in 8.0 mi North 6.9 mph - N/A   Overcast
8:58 AM -11.0 °F -29.9 °F -16.1 °F 78% 30.05 in 7.0 mi NNW 10.4 mph - N/A   Overcast
9:58 AM -9.0 °F -26.4 °F -15.0 °F 75% 30.04 in 7.0 mi NNW 9.2 mph - N/A   Overcast
10:58 AM -6.0 °F -27.0 °F -15.0 °F 65% 30.04 in 9.0 mi NNW 15.0 mph - N/A   Scattered Clouds
11:58 AM -5.1 °F -27.8 °F -15.0 °F 62% 30.04 in 8.0 mi North 18.4 mph - N/A   Clear
12:58 PM -4.0 °F -25.8 °F -15.0 °F 59% 30.04 in 8.0 mi NNW 17.3 mph - N/A   Clear
1:58 PM -4.0 °F -25.8 °F -15.0 °F 59% 30.04 in 9.0 mi NNW 17.3 mph - N/A   Clear
2:58 PM -2.9 °F -23.8 °F -14.1 °F 59% 30.04 in 10.0 mi NNW 16.1 mph - N/A   Clear
3:53 PM -2.2 °F -24.1 °F -11.2 °F 66% 29.99 in 6.0 mi NNW 18.4 mph 23.0 mph N/A   Haze
3:58 PM -2.0 °F -23.3 °F -13.0 °F 60% 30.03 in 7.0 mi NNW 17.3 mph - N/A   Partly Cloudy
4:58 PM -4.0 °F -27.6 °F -13.0 °F 65% 30.02 in 8.0 mi NNW 20.7 mph 26.5 mph N/A   Overcast
5:51 PM -4.0 °F -27.0 °F -11.2 °F 71% 29.99 in 8.0 mi NNW 19.6 mph - N/A   Overcast
5:58 PM -4.0 °F -28.6 °F -11.9 °F 69% 30.02 in 9.0 mi NNW 23.0 mph - N/A   Mostly Cloudy
6:30 PM -4.0 °F -28.1 °F -11.2 °F 71% 29.98 in 6.0 mi NNW 21.9 mph - N/A   Haze
6:58 PM -4.0 °F -28.1 °F -11.9 °F 69% 30.02 in 6.0 mi NNW 21.9 mph - N/A   Haze
7:26 PM -4.0 °F -27.0 °F -11.2 °F 71% 29.99 in 9.0 mi NNW 19.6 mph - N/A   Scattered Clouds
7:58 PM -5.1 °F -27.8 °F -13.0 °F 69% 30.03 in 9.0 mi NNW 18.4 mph 27.6 mph N/A   Clear
8:58 PM -6.0 °F -29.0 °F -14.1 °F 68% 30.03 in 9.0 mi NNW 18.4 mph 24.2 mph N/A   Clear
9:58 PM -9.0 °F -33.0 °F -14.1 °F 79% 30.03 in 9.0 mi NNW 18.4 mph 24.2 mph N/A   Clear
10:58 PM -9.9 °F -32.1 °F -15.0 °F 78% 30.04 in 10.0 mi NNW 15.0 mph - N/A   Clear
11:58 PM -9.9 °F -29.6 °F -15.0 °F 78% 30.04 in 10.0 mi NNW 11.5 mph - N/A   Clear